FENGYUN 1C DEB, 30056

Orbit data source: Space-Track

FENGYUN 1C DEB, 30056 is space debris in SSO originally from a launch on Mon, 10 May 1999 UTC launched from the Taiyaun Space Center, China (TSC). Fengyun 1C debris stems from the Chinese weather satellite Fengyun-1C, which was intentionally destroyed by a Chinese anti-satellite missile in 2007. This event dramatically increased the amount of space debris, with thousands of trackable fragments posing hazards to satellites and human spaceflight. The Fengyun 1C debris cloud has become a focal point in discussions about space sustainability and the need for international regulations to prevent the creation of new debris.

Loading next visibility...
Identifier
30056, 1999-025PH
Orbit
SSO
Country
Flag of CNCN / PRC
Related business
Manufacturer
Unknown
Mission
Spacecraft
Bus & Motor
Unknown
Mass
Unknown
Launch date (UTC)
1999-05-10 (27 years ago)
Launch vehicle
Unknown
Launch site
Taiyaun Space Center, China (TSC)
Object type
Payload
Rocket body
Debris
Shape & HBR
Unknown shape, 0.1 m
Radar Cross Section
Medium (>0.1 m² and <1 m²)

Expand to show TLE details & history
Last TLE update: 3 days ago

TLE from 3 days ago
0 FENGYUN 1C DEB
1 30056U 99025PH  26235.37124980  .00001791  00000-0  13923-2 0  9999
2 30056  98.3440  34.2598 0295605 244.5137 112.5169 13.75069913974603
Epoch: 2026-08-23T08:54Z
TLE epoch observation values (Epoch: 2026-08-23T08:54:35.982Z)
Latitude
-0.00004°
Longitude
-71.05838°
Altitude
1,073.013 km
Speed
7.271 km/s
True Right ascension
02h 17m 02s
True Declination
0° 00' 00"
Sunlit
Object was in daylight at epoch
Visualization orbit readout
Latitude
Unknown
Longitude
Unknown
Altitude
Unknown
Speed
Unknown
Apparent Right ascension
Unknown
Apparent Declination
Unknown
Sunlit
N/A
Visualization observer readout
Local Sidereal Time
23:19:09
Azimuth
Unknown
Elevation
Unknown
Doppler factor
Unknown
Orbital elements
Apogee altitude
1,196.093 km
Perigee altitude
761.154 km
Semi-major axis
7,356.761 km
Eccentricity
0.02956
Inclination
98.344°
RAAN
34.2598°
Arg. of periapsis
244.5137°
True anomaly
115.60088°
Mean anomaly
112.5169°
Eccentric anomaly
114.0634°
Mean motion
3.43964 °/min
Orbital period
104.66 mins
BSTAR
0.0013923
Loading maneuver chart data...
Computing Atmospheric mass density...
Loading historical data...
Loading historical data...
Loading historical data...
Loading historical data...
Loading historical data...
Loading historical data...
Loading historical data...

Documentation

Showing up to 5 results
|